sat.trackr.live / text

‹ back to catalog

STARLINK-36397

NORAD 67538 · 2026-014G

PAYLOAD ACTIVE UNKNOWN

§ Identity

Operator
Country
US
Launch date
2026-01-22
Launch site
AFWTR
Launch vehicle
Mass (kg)
RCS (m²)

Purposes: comms

External: N2YO · Heavens-Above · Gunter

§ Orbital elements

Epoch: 2026-05-25T03:38:59.991072Z

Period
93.91 min
Inclination
97.2858°
Eccentricity
0.0002043
Mean motion
15.33458161 rev/d
Perigee alt
464.1 km
Apogee alt
466.9 km
Semi-major
6,843.6 km
B*
6.5026e-4
RAAN
32.2282°
Arg perigee
93.9458°
Mean anomaly
266.2018°
Rev number
2,050

§ Raw data

STARLINK-363971 67538U 26014G   26145.15208323  .00020986  00000+0  65026-3 0  99902 67538  97.2858  32.2282 0002043  93.9458 266.2018 15.33458161 20505

JSON: /api/v1/satellites/67538 · /tle

For live sub-satellite position, see the globe view (requires WebGL).

§ Visibility from observer

Set your observer location to see the next 7 days of passes ≥ 10°. The values pass through the URL so the page stays shareable.

No JS? Fill the form by hand. The geolocation button needs JavaScript.